www.pogodaiklimat.ru

Погода и климат >> Архив погоды >> Парагвай >> Куйкуйо


ПОГОДА в Куйкуйо

  • Прогноз погоды в Куйкуйо
  • Монитор погоды в Куйкуйо

АРХИВ ПОГОДЫ в Куйкуйо

Время (UTC), дата Ветер
(напр.,м/с)
 
Видим.   Явления Облачность Т
(С)
Тd
(С)
f
(%)
Тe
(С)
Тes
(С)
Комфортность P
(гПа)
Po
(гПа)
Тmin
(С)
Tmax
(С)
R
(мм)
R24
(мм)
S
(см)
09 16.05 штиль 0 20 км ясно +15.4 +14.8 96 +15 +15 1020.7 1003.3
12 16.05 штиль 0 20 км 1/1 1000 м
[Sc]
+16.2 +15.8 97 +16 +18 1022.6 1005.2 +15.0
18 16.05 штиль 0 20 км 4/4 800 м
[Sc]
+25.4 +16.8 59 +29 +35 душно 1018.9 1002.1
00 17.05 штиль 0 20 км 1/1 1000 м
[Sc]
+20.0 +16.7 81 +22 +22 комфорт 1019.6 1002.5 +26.0
09 17.05 Ю 2 20 км ясно +16.4 +15.7 96 +16 +16 1018.0 1000.7
12 17.05 Ю 2 20 км ясно +18.4 +16.2 87 +20 +22 1019.3 1002.1 +16.0
18 17.05 СВ 2 20 км 4/4 1000 м
[Cu hum]
+26.0 +16.7 57 +30 +34 душно 1014.7 998.0
00 18.05 штиль 0 20 км ясно +20.2 +17.0 82 +23 +23 комфорт 1014.3 997.3 +27.0
09 18.05 штиль 0 20 км ясно +19.0 +15.6 81 +20 +20 1014.5 997.4
12 18.05 СВ 2 20 км 1/1 1000 м
[Sc]
+20.2 +15.3 73 +23 +25 комфорт 1016.4 999.4 +18.0
18 18.05 СВ 2 20 км 4/4 1000 м
[Cu hum]
+28.4 +14.6 43 +31 +35 душно 1014.1 997.6
00 19.05 штиль 0 20 км 1/1 1000 м
[Sc]
+21.8 +18.9 84 +27 +27 душно 1015.6 998.7 +30.0
09 19.05 В 2 20 км 4/4 800 м
[Sc]
+19.4 +17.1 87 +22 +22 комфорт 1014.5 997.4
12 19.05 В 2 20 км 10/10 600 м
[Sc]
+20.8 +17.9 83 +25 +25 комфорт 1014.2 997.2 +19.0
18 19.05 штиль 0 20 км 10/6 800 м
[Sc Ac As]
+25.0 +18.7 68 +30 +31 душно 1014.9 998.2
00 20.05 В 2 20 км 10/10 600 м
[Sc]
+20.4 +19.8 96 +25 +25 комфорт 1014.3 997.3 +25.0
09 20.05 штиль 0 20 км 1/1 1000 м
[Sc]
+18.4 +17.9 97 +19 +19 1012.2 995.1
12 20.05 штиль 0 20 км 6/6 800 м
[Sc]
+19.4 +18.7 96 +22 +23 комфорт 1014.7 997.6 +19.0
18 20.05 штиль 0 20 км 10/6 800 м
[Sc Ac As]
+25.6 +20.2 72 +32 +33 очень
душно
1011.8 995.1
00 21.05 штиль 0 20 км 6/6 800 м
[Sc]
+22.2 +18.8 81 +28 +28 душно 1010.5 993.7 +26.6
09 21.05 Ю 2 10 км гроза, ливневой дождь 10/10 1000 м
[Cb cap]
+20.4 +19.8 96 +25 +25 комфорт 1011.1 994.2 4
12 21.05 штиль 0 10 км гроза, ливневой дождь 10/10 1000 м
[Cb cap]
+20.0 +18.9 93 +23 +23 комфорт 1013.0 996.0 +19.0 24
18 21.05 штиль 0 10 км слаб. дождь 10/10 800 м
[Sc]
+20.8 +19.6 93 +25 +25 комфорт 1013.8 996.8 47
00 22.05 Ю 2 10 км слаб. дождь 10/10 800 м
[Sc]
+19.2 +18.9 98 +22 +22 комфорт 1013.1 996.0 +23.0 3
09 22.05 Ю 2 10 км слаб. дождь 10/10 800 м
[Sc]
+17.0 +17.0 100 +17 +17 1014.6 997.7 5
12 22.05 Ю 2 20 км 10/10 600 м
[Sc]
+17.2 +16.9 98 +17 +17 1016.6 999.4 +17.0 55
18 22.05 Ю 2 20 км 10/10 600 м
[Sc]
+19.2 +15.6 80 +21 +21 комфорт 1015.8 998.7

 

Местоположение метеостанции Куйкуйо (Парагвай): широта -26.22 долгота -56.98 высота над уровнем моря 101 м.

В архиве по умолчанию представлена погода в Куйкуйо за последнюю неделю. Архивные данные за месяц целиком и за предыдущие месяцы, начиная с января 2011 года, Вы можете получить, выбрав интересующий диапазон дат из раскрывающегося списка и нажав кнопку "Ввод!".


*Определитесь, кто Вы:
робот инопланетянин человек

Внимание! Время в таблицах - всемирное. Для получения местного времени необходимо прибавить поправку, которая равна -4 ч.

Смотрите также архив погоды в соседних городах и на ближайших метеорологических станциях:

Погода в Сан Хуан Батистута (Парагвай) (52 км)
Погода в Каасапе (Парагвай) (63 км)
Погода в Парагуари (Парагвай) (67 км)
Погода в Вильяррике (Парагвай) (76 км)
Погода в Коронель-Овьедо (Парагвай) (106 км)
Погода в Асунсьоне (Парагвай) (120 км)
Погода в Формосе (Аргентина) (125 км)
Погода в Пиларе (Парагвай) (150 км)
Погода в Посадасе (Аргентина) (162 км)
Погода в Энкарнасьоне (Парагвай) (167 км)

Пояснения к столбцам:

Ветер - указаны скорость ветра в м/с - средняя за 10 мин, порывы в срок и между сроками (в фигурных скобках) и направление, откуда дует ветер: С - северный, СВ - северо-восточный, В - восточный, ЮВ - юго-восточный, Ю - южный, ЮЗ - юго-западный, З - западный, СЗ - северо-западный.
Видимость - горизонтальная дальность видимости в метрах или километрах. При видимости от 1 до 10 км при отсутствии осадков обычно наблюдается дымка, при ухудшении видимости до 1 км и менее - туман. В сухую погоду видимость может ухудшаться дымом, пылью или мглою.
Явления - указаны атмосферные явления, наблюдавшиеся в срок или в последний час перед сроком; фигурными скобками обозначены явления, наблюдавшиеся между сроками (за 1-3 часа до срока); квадратными скобками обозначены град или гололедные отложения с указанием их диаметра в мм.
Облачность - указаны через наклонную черту общая и нижняя облачность в баллах и высота нижней границы облаков в метрах; квадратными скобками обозначены формы облаков: Ci - перистые, Cs - перисто-слоистые, Cc - перисто-кучевые, Ac - высококучевые, As - высокослоистые, Sc - слоисто-кучевые, Ns - слоисто-дождевые, Cu - кучевые, Cb - кучево-дождевые. Подробнее классификацию облаков см. в Атласе облаков (PDF).
T - Температура воздуха - температура, измеренная на высоте 2 м над землей.
Td - Температура точки росы - температура, при понижении до которой содержащийся в воздухе водяной пар достигнет насыщения.
f - Относительная влажность воздуха - влажноcть воздуха, измеренная на высоте 2 м над землей.
Te - Эффективная температура - температура, которую ощущает одетый по сезону человек в тени. Характеристика душности погоды. При расчете учитывается влияние влажности воздуха и скорости ветра на теплоощущения человека.
Tes - Эффективная температура на солнце - температура, которую ощущает человек, с поправкой на солнечный нагрев. Характеристика знойности погоды. Зависит от высоты солнца над горизонтом, облачности и скорости ветра. Ночью, в пасмурную погоду, а также при ветре 12 м/с и более поправка равна нулю.
P - Атмосферное давление - приведенное к уровню моря атмосферное давление.
Po - Атмосферное давление - измеренное на уровне метеостанции атмосферное давление.
Tmin - Минимальная температура - минимум температуры воздуха на высоте 2 м над землей.
Tmax - Максимальная температура - максимум температуры воздуха на высоте 2 м над землей.
R - Количество осадков - Количество выпавших осадков за период времени, мм. При наведении курсора мыши на число - период времени, за который выпало указанное количество осадков.
R24 - Количество осадков - Количество выпавших осадков за 24 часа, мм.
S - Снежный покров - Высота снежного покрова, см. При наведении курсора мыши на число - состояние снежного покрова и степень покрытия местности в баллах.